Theta_e
343 344 345 344 345 347 349 349 350 350 354 354 355 354 355 355 355 357 358 359 360 359 358 356 354 356 357 353 353 354 359 359 356 357 355 353 360 363 369 368 370 370 370 369 368 369 369 369 368 368 369 368 369 366 365 364 364 365 368 368 361 360 360 362 358 357 348 349 362 354 358 356 354 353 351 348 344 344 349 356 353 345 348 353 354
344 344 345 345 344 346 347 349 351 348 353 353 353 353 355 353 354 356 358 359 360 359 358 357 358 356 355 354 352 353 356 356 356 358 356 356 367 366 368 367 370 369 370 370 370 368 367 369 369 371 371 370 370 370 370 365 363 364 366 365 365 357 354 351 353 356 348 345 342 345 348 356 354 346 338 338 342 343 344 355 355 344 341 340 347
342 343 344 343 343 345 347 348 348 349 350 351 355 354 356 355 356 357 357 357 358 360 359 357 358 360 357 357 354 353 356 357 356 357 360 356 360 365 366 368 369 369 370 369 368 368 367 367 369 373 370 370 371 368 369 368 369 364 363 361 355 358 362 360 360 356 351 347 353 350 340 338 345 347 341 340 339 341 342 341 344 339 340 349 347
340 341 341 342 343 344 346 347 349 349 351 351 352 354 354 357 358 358 358 358 358 359 361 360 361 363 364 361 359 357 355 358 362 362 361 358 355 359 368 368 368 367 367 366 367 367 368 369 370 371 370 370 371 370 368 366 368 365 363 362 360 351 348 349 352 356 352 352 338 340 340 335 334 337 338 339 341 339 339 339 342 341 342 348 349
341 341 342 343 344 344 345 348 348 349 349 351 352 352 352 356 360 359 360 358 360 360 360 361 362 362 362 363 362 363 365 358 356 356 359 360 355 357 362 367 367 366 366 367 366 367 368 372 369 368 369 372 371 370 369 367 366 365 363 359 357 354 350 349 352 347 350 356 351 343 339 336 334 335 330 351 345 337 338 338 344 341 340 345 340
343 341 342 342 342 345 347 350 347 348 350 352 352 354 355 357 360 360 362 359 360 361 361 361 360 358 357 357 354 354 357 354 353 352 354 355 351 353 360 363 363 364 367 367 365 366 368 372 370 368 372 374 374 370 368 369 366 363 363 363 359 361 354 352 349 362 350 361 352 357 349 344 344 334 338 332 350 352 343 339 339 338 340 343 344
343 343 344 341 342 343 348 349 348 348 349 353 354 356 359 358 362 361 361 361 361 362 362 361 360 359 358 356 356 354 354 356 360 357 357 359 358 358 362 364 367 364 363 366 365 366 368 372 371 371 371 370 372 371 368 364 361 364 365 363 361 364 363 357 346 346 351 354 353 345 351 350 350 349 343 342 339 344 345 336 335 338 339 339 339
342 342 342 342 344 345 346 348 349 348 351 353 354 357 360 360 362 362 362 362 362 363 361 362 360 359 359 357 358 357 354 358 360 362 363 365 359 358 361 363 366 365 363 365 366 366 368 372 373 371 368 369 370 370 368 364 365 365 365 363 368 367 361 361 353 346 348 345 350 347 346 354 346 343 347 346 340 338 344 342 335 337 337 337 336
341 341 342 343 343 344 346 348 350 351 351 352 355 359 362 362 363 363 362 362 363 364 361 362 362 361 360 359 358 360 359 360 362 363 362 365 363 361 364 361 364 365 366 364 366 366 368 371 372 372 370 368 371 368 368 365 366 367 366 365 364 363 363 361 362 353 343 344 344 345 347 353 351 343 347 350 352 336 338 336 342 345 338 339 338
341 342 343 344 348 347 348 348 350 349 350 356 357 359 361 362 363 363 363 363 363 365 363 363 363 363 361 360 359 360 361 361 361 362 363 364 364 363 364 365 363 364 365 366 367 367 368 369 369 369 369 364 367 366 367 367 367 369 366 364 364 361 363 358 358 359 357 352 347 346 349 351 350 344 343 341 345 347 341 333 334 331 337 343 344
341 342 345 346 346 346 348 349 352 351 352 354 356 358 360 361 363 363 364 364 364 365 364 363 363 362 361 361 360 360 361 361 361 363 363 365 363 362 361 367 363 363 362 364 367 365 367 369 366 367 368 368 368 367 366 364 365 366 364 367 365 362 361 356 359 358 363 359 352 354 348 346 348 339 346 336 341 341 339 334 331 332 329 334 338
336 340 341 343 344 346 346 348 349 348 349 352 355 357 361 362 362 362 364 364 364 365 364 363 362 362 362 363 361 362 362 359 360 360 362 362 363 362 364 364 365 365 365 364 362 361 366 368 368 367 368 368 368 368 366 364 361 364 367 367 365 365 361 358 356 350 352 357 350 347 347 347 345 348 342 352 344 340 339 338 340 352 341 339 348
336 340 342 340 342 343 344 349 350 348 349 354 354 356 359 362 363 362 363 365 364 364 363 363 362 362 362 362 362 363 363 362 361 360 363 362 362 362 364 363 365 365 365 364 362 363 366 368 367 367 368 368 368 368 368 368 368 365 366 365 364 363 362 358 357 354 348 353 349 344 344 343 346 346 347 345 348 356 348 342 344 343 343 340 340
337 339 339 341 343 345 346 347 349 349 350 354 355 357 359 360 362 361 362 364 364 364 363 363 363 363 363 362 362 363 363 363 361 360 362 364 365 363 361 362 363 362 363 363 363 362 364 368 369 368 370 370 370 370 369 369 370 369 366 363 362 363 363 357 356 354 352 354 352 358 343 341 345 343 341 347 344 343 346 340 343 347 341 338 345
338 338 337 340 342 344 344 346 350 353 351 353 355 358 360 361 363 363 363 364 364 364 364 363 363 363 363 363 364 364 364 363 361 361 361 364 364 364 365 363 362 363 362 365 366 364 364 366 369 368 368 370 369 369 368 369 370 370 369 364 362 364 363 357 356 353 350 347 349 350 354 345 346 347 343 343 347 340 343 344 348 346 338 337 335
338 338 339 343 344 344 344 346 352 355 355 354 356 358 360 362 364 364 364 364 364 365 364 364 363 363 363 363 363 365 365 364 363 362 362 363 366 366 367 367 365 366 367 367 366 366 365 365 368 368 369 370 369 368 369 367 369 367 369 366 364 362 360 358 356 354 351 349 347 350 351 347 350 348 345 344 342 355 343 348 345 344 340 334 340
335 335 335 342 343 344 345 348 350 354 354 354 356 359 361 363 364 365 366 364 364 364 364 364 365 363 363 363 364 365 365 363 361 362 359 362 365 368 367 367 367 367 367 367 366 366 368 366 366 365 368 369 369 369 369 369 369 368 366 366 363 359 359 358 356 354 354 348 346 348 351 352 356 357 357 352 344 351 360 349 349 344 343 342 336
335 339 341 342 344 346 346 349 351 353 354 355 359 360 362 364 364 365 366 365 365 364 364 365 364 363 363 363 364 364 363 362 361 362 361 361 362 366 367 367 364 363 365 363 365 365 365 369 366 366 367 368 367 368 370 370 370 367 367 367 364 364 361 359 357 355 354 353 347 346 348 350 352 353 355 355 356 356 363 357 356 350 352 340 342
335 338 340 340 340 343 347 345 349 356 358 357 359 359 361 363 364 366 366 366 365 364 365 366 365 363 363 363 363 364 363 362 363 363 362 360 358 362 364 365 366 364 363 365 365 364 364 366 367 367 368 368 368 368 371 370 369 366 365 366 366 365 363 358 358 356 355 353 351 347 349 349 353 351 357 349 362 353 353 358 354 356 348 349 345
333 338 337 336 337 339 347 352 353 355 356 356 356 356 357 360 365 366 367 367 367 365 367 366 366 365 363 364 364 364 364 364 365 364 363 360 361 360 362 361 365 365 363 363 366 363 364 363 365 364 364 366 367 366 369 370 368 366 364 363 364 364 362 360 356 356 354 354 351 349 350 351 351 352 352 353 358 353 353 353 354 350 353 348 349
331 334 338 337 340 346 352 354 355 356 358 357 355 355 356 358 363 365 366 365 366 366 366 366 367 366 365 364 364 364 364 364 364 364 364 363 362 362 362 362 365 365 364 361 363 364 365 365 362 362 362 364 366 365 366 368 367 366 365 364 364 364 361 359 358 355 354 355 352 349 350 353 353 350 350 352 351 354 351 351 351 353 348 349 346
332 332 335 342 346 348 351 354 353 354 356 356 356 356 356 357 361 364 365 365 365 365 366 368 367 364 363 364 364 364 364 363 361 362 363 364 364 363 364 365 364 366 366 362 361 361 365 366 365 364 365 366 367 367 365 366 366 365 364 364 364 364 361 359 358 356 354 354 354 349 349 353 353 350 350 348 349 347 348 346 348 347 347 347 348
329 332 332 335 341 340 340 344 347 351 356 356 357 355 355 357 360 363 363 364 365 365 365 366 365 364 363 363 364 363 363 362 360 359 358 359 363 364 365 364 363 362 366 365 363 360 363 366 366 367 367 366 367 366 365 365 366 365 363 361 362 364 362 359 357 356 355 355 353 351 348 350 352 350 350 348 348 348 346 345 345 346 345 345 348
332 332 334 337 341 344 341 341 348 355 358 357 357 357 357 357 359 361 362 364 364 365 364 364 364 363 363 364 365 364 361 359 359 359 359 358 359 362 364 363 363 361 362 365 366 363 364 366 366 367 368 366 366 366 365 364 365 365 364 363 362 362 363 361 358 356 355 355 353 352 349 347 349 351 351 350 350 349 347 348 346 347 347 345 347
333 334 339 345 346 344 343 344 351 357 356 358 358 358 357 358 358 359 361 363 364 365 364 362 362 361 361 363 361 362 363 361 360 359 359 358 359 361 363 361 360 360 362 363 365 367 367 366 365 366 368 367 365 366 365 363 365 366 365 363 362 361 362 361 359 358 357 356 355 352 351 349 348 349 352 350 350 349 348 348 347 348 347 347 347
336 341 342 340 345 347 346 348 358 358 355 359 360 358 357 357 358 359 360 362 364 363 363 363 362 362 361 361 362 361 360 361 360 358 358 357 358 359 362 363 364 363 362 362 364 365 366 367 366 366 368 368 367 365 365 364 363 364 366 365 363 361 361 362 361 359 358 357 356 355 353 351 349 347 349 350 350 349 349 347 347 347 348 348 347
337 343 343 344 345 346 345 348 356 353 353 356 357 357 357 360 360 359 360 361 363 363 363 362 363 362 361 361 362 360 360 361 361 358 357 359 359 358 360 362 363 362 361 359 363 364 365 368 367 367 366 368 367 366 365 366 365 365 366 365 364 363 361 362 363 361 359 358 357 357 355 353 351 349 348 349 350 349 349 348 348 348 349 347 346
342 346 353 351 348 354 358 360 357 354 355 354 356 356 358 361 360 360 359 360 361 362 362 363 364 363 362 360 363 362 360 362 362 362 360 359 359 358 359 362 365 363 361 359 358 363 366 366 368 367 367 367 367 367 366 367 367 366 366 366 365 363 361 362 363 363 360 358 358 357 356 355 353 352 349 349 350 349 349 348 349 349 349 347 345
335 353 359 356 352 358 362 360 357 355 354 354 354 356 359 362 360 360 358 359 362 361 362 362 364 364 364 364 365 364 362 363 364 363 360 359 359 359 360 361 364 364 362 360 358 360 364 365 367 368 368 367 366 366 366 366 367 366 366 365 365 364 362 362 363 363 362 360 359 358 357 356 355 352 346 346 346 347 350 347 349 349 348 347 346
333 340 345 360 360 366 366 365 363 356 356 352 354 357 358 359 358 358 361 360 362 362 362 360 362 365 366 366 366 366 365 364 364 363 361 361 359 359 359 360 362 364 364 364 361 358 362 365 365 368 368 367 366 366 355 342 348 364 365 363 364 364 363 362 363 362 362 362 360 358 358 351 346 343 342 340 340 341 343 348 349 349 348 347 346
328 342 339 350 353 359 364 365 364 361 360 355 355 356 356 354 356 356 360 360 361 363 362 361 362 367 368 368 367 367 367 365 365 364 364 362 361 361 360 361 361 363 365 366 365 360 357 363 365 366 367 367 366 363 341 335 339 344 360 363 363 365 364 363 362 362 361 361 361 360 359 354 346 343 344 337 338 338 340 341 345 347 347 349 347
330 337 339 348 347 352 357 358 358 357 358 357 359 356 354 351 353 355 356 357 358 362 362 363 364 369 370 369 368 368 368 367 366 365 365 365 363 362 361 361 361 362 365 366 365 363 361 358 364 365 366 367 367 347 335 334 336 337 345 363 363 363 364 363 361 361 362 362 361 360 359 359 357 355 352 346 339 336 337 338 339 344 344 344 346
338 342 350 345 344 347 356 350 349 350 350 351 358 352 354 354 355 356 357 356 355 357 364 365 365 369 370 370 370 369 368 368 368 367 367 367 365 363 362 361 360 362 363 365 366 364 363 361 360 365 365 367 368 343 333 331 333 334 336 349 363 361 360 361 361 360 360 362 361 360 359 358 359 344 349 352 348 344 334 334 336 339 342 341 338
325 329 331 337 342 349 356 353 355 354 348 350 354 353 356 355 354 358 356 356 357 358 364 365 366 369 371 371 370 369 369 369 370 369 369 368 367 364 362 361 361 363 363 363 365 364 364 363 361 363 366 367 368 344 329 328 330 331 333 341 363 362 361 360 361 360 358 359 362 360 359 358 358 357 354 354 351 348 346 342 342 344 347 348 340
336 341 331 352 349 346 356 350 342 352 354 352 352 352 357 355 355 355 356 361 360 358 361 367 365 368 371 371 371 370 369 370 371 371 369 369 368 367 365 363 362 362 362 362 363 363 364 364 363 362 364 366 366 339 326 326 326 327 330 335 361 362 361 361 362 362 361 358 359 361 360 358 358 360 357 353 354 351 349 346 344 344 346 348 350
328 340 353 349 337 344 332 350 342 344 344 351 350 349 348 350 350 351 353 357 362 360 360 369 366 367 370 371 371 370 370 371 371 371 369 368 368 368 366 365 363 363 364 364 365 364 364 364 364 363 361 362 364 335 325 324 324 325 327 343 358 360 359 360 361 362 362 362 360 360 360 359 358 358 348 335 344 354 351 348 345 345 345 347 349
346 328 329 357 360 347 352 356 352 349 345 341 348 349 348 347 348 348 354 353 358 362 359 366 367 366 368 371 372 371 371 372 372 370 369 367 368 369 369 367 364 362 362 363 363 363 364 364 364 364 362 361 362 341 322 322 322 323 327 349 357 360 359 358 359 361 362 363 362 361 360 360 359 358 345 330 333 341 354 351 348 346 346 346 346
346 352 335 356 364 358 352 346 350 352 348 347 343 349 352 352 350 350 352 351 353 359 360 364 368 367 368 371 373 372 372 372 372 371 370 369 369 370 369 368 363 361 358 360 363 363 364 365 364 364 364 362 363 345 319 319 319 320 330 351 356 358 359 359 358 360 362 363 362 350 359 360 360 359 338 327 329 339 354 353 350 348 346 345 346
348 352 349 351 358 358 353 354 355 348 354 356 350 346 345 355 354 347 347 349 353 356 360 361 367 369 369 371 373 373 373 372 372 372 371 371 370 369 370 370 365 363 361 364 364 364 364 365 364 364 349 359 363 350 318 318 317 318 330 353 357 358 358 358 358 358 360 362 363 353 345 349 354 353 333 326 325 335 354 354 353 351 347 346 346
347 348 349 358 360 358 352 352 352 359 352 354 348 350 354 365 354 349 347 351 352 356 363 364 368 369 369 369 372 374 373 372 372 373 373 372 371 369 370 369 367 363 361 361 363 364 363 364 364 364 363 363 364 365 341 314 315 315 320 351 359 358 357 358 359 359 358 359 361 364 351 330 332 334 328 322 322 325 350 355 355 352 350 347 350
346 347 356 353 355 353 352 354 367 370 365 359 354 355 356 359 368 354 350 350 356 361 366 366 369 368 367 369 370 373 373 374 375 374 372 371 369 368 367 368 366 365 363 362 361 361 361 364 365 366 365 364 364 365 355 314 313 314 316 328 359 360 360 359 359 358 359 358 358 360 363 336 325 325 324 318 318 319 331 354 354 353 352 351 347
351 355 356 356 354 358 357 353 358 362 359 358 367 368 375 374 375 362 357 359 370 366 367 368 368 368 368 368 369 374 374 373 375 376 374 371 371 370 368 368 366 367 365 364 363 361 360 361 363 366 368 368 364 348 368 318 314 312 314 316 349 360 360 361 360 359 360 359 359 361 361 345 324 323 320 316 315 318 322 347 353 336 336 335 348
346 350 355 354 353 354 352 354 355 364 364 364 359 366 368 371 372 377 374 374 383 369 370 369 368 369 370 370 372 374 373 372 373 375 374 371 371 369 369 369 368 368 368 366 366 364 363 361 364 367 369 370 372 365 341 337 313 312 312 314 323 343 338 358 360 359 360 360 362 361 360 342 323 319 318 315 314 316 318 335 330 328 329 329 340
344 349 354 353 351 353 358 360 362 362 363 367 368 367 366 368 369 371 382 369 381 375 374 370 367 368 370 371 372 374 374 372 373 374 374 372 370 369 370 370 369 368 366 366 366 366 364 361 360 363 365 367 375 372 347 329 322 311 312 312 315 321 331 352 360 360 362 362 362 363 356 335 320 313 314 316 315 316 328 321 322 325 327 328 345
350 352 355 354 356 357 357 360 362 362 367 371 370 368 359 359 366 369 369 375 373 379 374 370 369 368 369 370 373 373 374 373 373 373 372 371 370 370 368 370 369 367 367 365 366 366 365 364 363 362 363 365 368 373 371 335 320 313 312 311 313 316 320 324 352 360 360 361 345 335 332 327 322 313 314 316 316 315 315 319 319 322 328 342 346
350 351 351 353 355 358 358 357 359 360 360 367 371 365 363 371 372 373 369 367 370 376 375 372 370 371 369 367 370 370 374 374 374 372 373 372 369 367 366 368 367 367 366 366 366 364 363 364 363 362 361 363 370 371 371 360 326 318 314 312 313 314 318 320 330 352 340 338 333 328 324 323 318 316 322 326 330 330 319 318 320 322 335 343 347
348 349 350 352 353 352 354 354 354 357 360 360 362 363 364 367 371 369 367 371 378 375 373 374 373 369 372 371 369 368 371 370 372 368 368 370 369 367 366 366 365 362 363 364 364 363 362 359 360 361 361 364 367 368 372 366 345 337 335 331 323 322 315 315 324 333 332 343 342 337 342 332 330 321 321 322 325 327 327 323 327 330 335 343 347
349 349 350 352 352 352 351 352 352 354 356 357 358 360 363 365 361 366 369 370 371 372 367 369 367 368 370 369 369 371 368 364 366 366 362 364 364 364 363 367 364 364 362 363 362 360 359 360 358 358 360 360 360 362 340 341 341 345 349 344 337 333 334 333 331 333 337 341 346 334 336 343 339 335 330 332 333 335 336 332 332 334 336 340 341
348 349 350 351 351 350 350 349 350 353 354 357 358 360 362 364 366 367 367 366 367 366 369 366 365 363 362 367 363 365 363 362 363 347 331 323 330 360 371 351 331 333 359 366 363 365 362 363 359 363 365 365 352 335 326 306 314 305 316 336 351 345 342 340 330 323 338 342 343 344 346 346 343 339 340 338 336 335 336 337 336 337 339 340 342
348 348 349 351 351 351 349 349 350 352 353 354 355 358 360 362 366 369 370 368 368 370 369 365 364 362 361 361 361 359 361 361 359 349 342 331 315 304 319 343 332 315 308 310 321 342 347 358 343 336 338 342 334 323 302 297 297 297 298 297 296 295 296 310 309 309 323 337 340 342 344 345 344 343 343 342 340 338 337 337 338 330 337 340 341
345 345 347 348 349 350 349 348 349 350 351 351 353 354 357 360 363 366 368 370 368 370 367 365 364 362 364 372 362 360 363 368 363 359 352 342 334 323 301 300 308 309 304 299 298 301 305 316 337 326 315 306 305 299 297 297 297 296 296 296 297 295 295 295 298 318 332 334 338 340 343 345 346 345 344 343 343 341 340 339 338 337 337 336 336
Wind_Speed
16 17 15 15 18 16 13 14 15 16 15 15 15 14 13 13 14 13 13 12 11 10 9 9 9 8 7 9 8 8 5 5 5 5 6 6 5 6 9 6 6 6 6 5 5 5 4 3 4 4 4 4 4 4 3 2 0 1 0 3 2 2 3 2 2 1 6 2 1 1 1 1 2 2 1 1 5 6 3 2 3 6 8 6 4
17 15 15 14 15 19 17 14 16 18 15 17 16 17 14 14 15 12 12 12 13 12 10 10 8 8 8 8 8 8 7 6 5 4 5 5 5 6 8 7 6 6 6 5 5 5 4 3 3 3 4 3 4 3 3 3 2 3 2 2 3 3 3 4 3 2 1 4 3 3 2 2 1 2 3 3 8 7 4 2 2 3 7 7 8
17 17 17 16 19 19 14 14 16 19 18 20 16 17 15 13 13 12 12 13 13 13 11 10 9 8 8 7 8 7 7 7 6 7 5 6 6 6 7 6 6 6 6 6 5 5 5 4 4 4 3 3 4 3 4 4 3 2 2 2 1 3 2 1 2 2 1 3 2 2 3 2 3 3 3 3 8 9 4 5 3 5 3 2 5
19 18 19 18 16 17 17 16 15 16 15 17 18 18 15 12 14 13 12 13 11 12 10 10 9 8 7 7 7 5 7 6 6 6 6 6 7 7 6 7 7 7 7 7 6 6 5 5 4 4 5 4 3 3 3 3 5 3 3 2 4 3 4 4 4 3 2 2 2 2 2 4 2 3 3 6 3 9 7 5 5 4 4 3 3
18 20 19 16 14 17 18 16 17 17 18 18 19 19 16 16 15 15 12 13 11 12 12 10 8 8 8 6 6 5 5 6 6 6 7 6 7 7 7 7 7 6 7 8 7 6 6 5 5 5 5 4 4 4 4 3 4 3 4 3 5 5 1 3 3 4 3 2 2 1 2 3 3 3 4 2 1 6 6 8 3 4 5 5 5
19 20 19 18 20 17 16 15 18 18 18 18 19 19 17 15 16 15 11 13 12 14 13 11 9 9 9 8 8 8 6 8 8 8 7 8 10 8 8 9 9 8 7 8 7 6 6 6 6 5 4 4 3 4 3 2 4 4 5 5 5 3 1 1 1 1 4 2 4 2 1 1 1 4 2 2 2 1 3 5 5 6 4 5 4
19 19 19 21 20 18 16 16 20 20 19 18 19 18 17 16 16 16 13 12 13 13 14 11 10 9 10 10 8 9 8 6 7 7 7 7 7 6 8 9 8 9 9 8 8 7 6 7 7 6 5 4 4 4 4 5 5 5 4 3 5 2 1 1 5 3 3 1 1 2 2 3 1 2 2 1 0 3 1 5 6 9 7 5 5
19 21 20 20 20 18 19 22 19 21 20 19 19 18 18 17 17 16 13 13 13 13 15 12 11 11 11 10 8 9 9 6 8 8 7 6 8 7 8 8 9 8 8 8 8 7 7 6 5 6 6 6 5 4 4 4 4 4 7 7 2 3 2 2 1 6 4 2 1 2 3 3 4 5 2 1 2 1 1 4 4 8 8 8 8
20 19 21 20 22 20 18 14 19 19 19 19 19 18 17 17 17 17 15 14 13 16 16 14 12 11 11 10 9 7 8 7 6 7 6 5 7 7 6 9 9 9 8 7 9 8 7 7 7 6 6 5 6 5 6 5 4 5 5 3 4 3 2 1 1 5 4 3 3 3 2 1 1 3 2 2 1 2 1 2 1 1 5 6 5
20 21 21 19 14 13 16 16 17 16 18 16 18 18 18 17 17 18 17 15 14 16 16 16 14 12 12 11 11 9 8 7 7 7 7 7 6 8 6 7 9 9 9 8 8 9 8 7 7 8 7 7 6 6 6 3 4 4 4 5 4 4 3 2 2 1 0 2 4 4 2 1 1 2 1 3 1 2 2 3 3 6 3 2 3
18 19 19 18 18 16 16 17 14 11 12 16 18 18 19 19 18 19 18 15 16 16 17 17 15 14 12 13 12 11 10 9 8 8 8 7 8 7 8 6 8 9 9 8 8 9 8 8 9 8 7 6 6 5 6 6 5 5 5 5 5 5 4 4 2 2 2 1 3 3 4 3 2 3 2 4 3 2 2 4 4 7 6 3 4
16 18 19 18 17 18 19 18 16 19 18 20 20 18 18 18 19 21 18 17 16 16 18 17 16 15 13 14 13 12 11 9 10 9 10 9 8 8 7 7 6 8 8 8 8 11 8 8 8 8 7 6 6 5 5 6 6 5 5 5 5 5 5 5 3 3 2 2 3 4 4 3 4 3 4 3 4 4 5 4 3 1 3 3 3
16 15 16 16 16 18 20 19 20 19 18 20 22 21 20 19 21 22 20 18 17 18 18 18 16 15 14 14 13 11 12 10 10 9 9 9 8 8 8 8 7 7 8 9 9 10 8 8 8 8 7 7 6 6 5 5 4 5 6 7 5 6 5 5 4 4 4 3 3 5 4 5 4 5 3 2 2 3 2 1 2 2 2 3 3
17 16 17 16 15 16 15 16 19 20 22 22 22 20 18 19 21 22 22 20 18 18 19 19 18 16 15 14 13 12 12 12 10 10 9 9 9 9 9 9 8 9 9 9 9 10 9 9 9 8 6 7 7 6 6 5 5 4 7 6 7 6 4 7 6 5 4 3 3 2 6 4 4 4 5 3 3 3 2 3 2 1 2 4 2
18 15 17 17 18 17 15 17 19 21 24 24 20 18 18 18 20 22 21 21 20 20 18 20 17 17 15 14 14 12 12 12 10 10 9 10 10 10 9 8 9 9 9 8 9 10 9 9 9 9 8 7 7 6 6 6 5 4 4 7 6 7 6 7 6 6 5 5 4 4 3 5 6 5 4 4 3 5 3 3 1 0 1 3 4
21 17 15 15 18 17 16 17 18 19 20 20 21 17 18 19 21 23 23 22 21 20 19 19 18 16 16 16 16 14 12 11 10 10 10 10 10 10 10 9 9 8 9 8 9 9 10 10 10 10 8 8 8 8 7 6 6 6 4 6 6 7 6 8 7 7 7 7 7 5 5 6 4 4 5 5 5 2 6 3 4 2 3 1 1
20 21 19 19 19 18 16 16 16 21 22 21 20 20 21 20 20 21 21 21 22 22 20 19 18 17 18 17 16 15 15 15 14 14 15 12 10 10 10 11 9 8 9 9 9 9 8 10 10 11 10 8 8 8 8 7 7 7 7 6 7 7 8 7 7 7 6 8 7 7 5 6 4 3 3 3 6 3 3 5 5 5 3 2 2
20 20 20 18 18 18 18 19 23 25 26 23 21 19 18 18 21 23 21 21 20 20 20 19 19 19 18 18 17 17 16 17 15 15 13 11 11 10 10 10 11 10 9 9 9 11 9 10 10 10 10 9 9 9 9 8 8 7 8 7 7 6 7 7 7 7 7 5 7 7 7 6 5 4 3 2 4 3 1 2 2 4 3 6 2
18 23 20 21 21 23 23 26 27 26 23 21 18 18 17 17 19 22 24 25 24 21 20 17 18 15 15 18 19 17 16 15 14 13 13 12 14 12 13 11 11 10 9 8 10 10 10 9 9 10 10 10 10 9 9 8 8 8 8 8 7 7 6 7 7 7 6 6 6 8 7 7 4 4 3 4 2 4 4 2 2 2 4 3 3
17 18 19 19 20 23 25 25 25 25 24 23 24 22 23 21 20 21 21 20 20 20 18 18 18 16 16 17 17 17 16 15 14 14 13 14 14 14 14 14 12 11 10 10 8 10 11 11 10 10 11 11 11 10 10 9 8 8 7 8 8 9 8 7 8 8 7 7 7 7 7 7 7 5 4 4 3 4 4 4 3 4 3 4 3
15 18 19 20 19 21 22 21 20 21 20 21 22 24 23 21 22 22 22 23 23 22 21 18 17 17 17 18 18 17 17 15 15 15 14 14 13 13 12 12 10 11 11 12 10 10 11 11 12 11 11 10 10 10 9 9 9 8 8 8 8 10 10 8 8 9 9 7 8 8 6 7 7 7 6 4 4 4 5 5 4 4 5 4 5
15 17 21 20 19 17 16 14 15 18 21 23 22 21 23 23 22 22 22 21 23 21 19 18 17 17 19 19 19 17 17 15 17 16 15 15 14 13 12 11 12 11 11 12 13 11 10 12 12 11 11 11 11 11 11 10 10 10 10 8 9 10 11 10 8 9 10 9 8 8 8 7 8 8 7 8 6 6 6 6 6 6 6 6 5
19 17 18 17 15 15 14 15 16 20 20 22 21 22 23 24 23 21 22 23 22 22 19 16 16 16 18 18 18 18 17 18 20 17 19 18 15 14 13 13 13 13 12 12 12 13 11 11 11 11 11 11 11 12 11 11 11 11 12 11 10 11 12 11 11 11 11 10 9 9 10 8 7 9 9 8 8 7 7 8 8 7 6 6 6
16 17 18 16 17 15 15 17 17 16 16 20 20 20 20 21 22 21 24 24 23 21 19 17 17 18 19 18 17 16 20 20 20 17 20 19 17 15 14 14 14 13 12 12 11 12 11 11 12 11 12 12 11 12 12 12 12 13 12 12 11 11 11 12 12 12 11 10 11 10 10 10 8 8 9 8 8 7 7 7 8 7 7 7 6
16 14 12 19 17 16 15 14 14 15 16 16 17 18 20 20 21 21 21 22 20 19 20 19 20 20 20 18 19 19 19 20 20 17 20 19 18 16 14 15 15 14 13 12 11 11 11 12 12 13 13 13 13 13 13 13 12 12 13 13 12 11 11 12 12 11 11 11 11 11 11 10 10 9 9 9 8 9 8 7 8 7 7 7 6
13 9 14 20 17 16 15 14 12 14 15 13 15 18 19 19 21 20 19 19 20 19 19 19 20 20 18 20 19 18 19 20 20 19 20 19 18 16 15 14 15 15 14 13 13 12 12 13 13 13 13 13 13 12 13 13 14 13 13 13 12 12 11 11 12 12 11 11 11 11 11 11 11 12 10 10 9 10 8 8 8 8 7 7 7
13 7 10 12 16 17 17 15 14 19 17 15 17 19 18 15 18 19 18 18 18 18 17 19 20 21 18 20 19 18 18 19 18 17 17 16 17 17 17 16 16 16 16 15 14 14 12 13 14 13 14 13 13 13 12 13 13 12 13 13 12 12 12 11 11 12 12 12 12 12 11 12 13 12 12 11 11 11 10 9 8 8 8 8 8
7 5 7 11 12 11 13 15 17 17 16 15 16 18 16 14 16 17 18 18 16 17 16 16 17 17 17 19 18 17 17 17 15 15 15 16 16 16 15 14 13 15 17 16 15 15 13 13 14 14 14 13 13 13 13 13 13 13 12 13 13 12 13 12 12 12 13 13 13 14 14 13 14 13 13 11 12 11 10 10 9 8 8 9 9
7 7 7 7 8 7 9 11 13 15 16 15 15 16 14 12 15 15 18 19 16 16 16 17 16 16 16 15 15 15 15 15 15 15 16 15 15 14 14 13 13 14 14 15 15 14 14 14 14 14 14 13 13 14 13 13 13 14 13 13 14 13 13 13 13 13 13 13 13 14 14 14 15 17 19 16 15 13 11 11 10 9 9 9 9
11 8 8 5 5 6 7 7 8 12 12 15 13 12 14 15 15 16 15 16 14 16 15 17 17 16 14 14 14 13 14 15 15 15 15 15 15 14 14 14 14 15 13 13 12 12 14 15 15 14 14 13 13 12 15 21 18 14 14 13 12 13 14 13 13 13 14 14 15 15 14 18 18 20 20 20 19 18 18 14 12 11 12 10 10
12 9 9 7 6 7 6 7 8 9 9 11 11 11 12 17 17 18 15 15 15 14 16 17 15 14 14 14 14 14 13 15 15 15 14 15 15 13 13 14 13 13 14 13 12 13 13 13 16 16 16 15 14 13 20 20 22 23 17 14 13 13 13 13 13 13 13 14 14 14 13 16 17 18 19 22 21 20 19 19 18 18 15 14 12
18 14 13 10 10 9 10 11 12 12 10 8 9 10 12 15 16 16 17 17 16 14 17 16 14 14 15 16 14 14 14 15 14 15 15 15 14 14 13 13 13 14 13 12 14 14 13 13 14 16 17 15 15 17 20 22 23 24 21 15 13 12 13 13 13 13 12 13 13 14 13 11 13 16 16 17 20 22 21 20 19 19 19 20 17
14 15 13 14 14 13 13 15 14 13 12 13 10 12 11 10 10 12 13 17 18 16 14 15 15 14 15 15 14 15 15 14 15 15 14 13 14 14 14 13 15 14 12 13 14 14 14 14 13 15 17 17 15 17 20 23 23 24 24 19 13 14 13 13 14 14 13 13 13 13 13 12 11 19 17 16 17 18 20 22 21 20 20 21 20
2 2 10 11 8 4 13 12 11 12 14 13 12 12 9 10 10 9 12 12 12 13 12 15 15 14 15 15 15 15 15 14 13 13 13 13 14 15 15 14 13 12 13 14 14 15 15 14 14 13 15 16 16 15 20 23 24 24 24 21 15 15 15 15 15 15 14 14 14 14 13 12 11 12 14 16 16 17 16 15 14 14 14 17 19
3 3 6 3 5 5 2 1 5 12 12 11 11 10 9 10 9 10 10 9 10 12 9 12 15 14 14 15 15 15 14 13 13 13 13 14 15 14 14 12 12 14 14 15 15 15 15 15 15 15 12 14 16 18 20 23 24 25 25 21 17 15 14 14 14 14 15 16 15 14 14 14 12 12 13 17 16 16 16 16 17 17 16 14 14
7 5 3 1 1 3 4 4 4 7 8 13 12 12 13 14 14 12 11 10 9 11 11 9 13 15 15 14 15 14 14 14 14 14 14 14 13 13 14 13 11 11 11 11 11 13 14 15 15 15 14 15 15 19 21 23 25 24 26 14 15 16 15 14 14 14 14 14 14 14 14 14 14 14 16 21 19 15 15 16 17 17 16 15 15
11 6 5 3 3 4 4 4 4 2 3 5 11 13 12 12 13 13 10 11 10 11 12 11 12 14 14 14 15 15 15 14 14 14 15 15 14 13 12 11 11 11 11 12 13 14 12 13 15 14 16 15 14 16 20 24 25 27 19 10 15 16 15 15 14 14 14 14 15 15 14 13 14 15 16 20 20 19 15 17 17 17 16 15 15
15 16 4 9 8 7 6 4 3 3 5 6 6 6 11 9 10 10 11 11 12 12 12 11 11 13 13 13 14 14 14 15 14 16 15 14 13 11 12 11 13 13 15 15 13 12 13 13 15 16 16 15 14 14 19 21 24 24 22 12 17 16 16 15 14 13 12 13 16 21 18 16 15 15 16 19 21 19 15 16 16 17 16 16 16
10 12 13 12 9 7 6 4 4 6 5 5 6 7 4 9 9 12 13 12 12 12 11 12 11 12 12 12 13 14 14 15 15 14 13 14 13 12 11 10 12 13 13 11 10 12 13 13 16 17 17 17 16 14 17 20 22 22 20 13 15 15 16 16 14 14 13 12 12 14 20 19 17 16 19 20 23 21 17 15 16 15 17 19 19
10 11 12 7 4 3 3 4 5 3 6 7 8 6 6 4 11 12 11 12 13 12 10 10 10 11 12 12 13 13 14 14 14 13 12 12 11 11 13 13 13 12 12 12 11 12 13 13 13 14 14 12 15 14 12 18 20 21 23 16 14 14 17 18 15 13 12 12 12 11 13 19 20 19 19 21 23 26 21 17 15 15 17 21 16
10 10 10 6 5 4 4 5 2 2 6 6 5 5 6 6 5 8 10 11 10 9 8 9 9 10 12 13 12 13 13 12 11 11 11 11 12 12 12 11 13 13 12 11 13 12 13 12 12 12 13 14 13 14 12 19 19 21 23 21 14 15 16 13 12 11 12 12 11 11 9 13 20 20 19 21 23 26 26 19 18 18 20 17 14
10 8 6 4 7 5 4 5 2 3 4 5 4 5 3 4 4 7 10 7 6 9 9 9 10 10 11 12 12 11 11 11 10 10 11 11 10 11 10 12 12 10 11 11 11 10 11 11 10 10 10 10 11 15 10 15 20 21 21 25 15 15 13 11 11 11 11 12 11 9 10 11 18 20 18 18 22 23 28 20 21 24 22 17 16
11 9 10 11 8 8 7 7 7 8 8 8 7 5 4 4 3 3 3 4 4 8 9 10 10 10 10 10 10 10 10 10 10 11 11 11 10 11 11 10 11 10 10 11 10 10 10 9 7 7 7 8 8 9 14 11 18 21 23 24 25 18 16 13 12 12 12 12 9 10 11 13 16 20 21 19 19 24 21 22 27 23 22 20 17
11 10 11 11 9 7 6 6 7 7 6 6 5 6 4 3 4 3 2 1 3 6 8 9 10 10 10 10 10 10 10 9 10 10 11 10 10 10 9 9 9 9 9 9 9 9 9 10 10 8 7 6 5 7 9 15 15 21 21 24 25 24 18 14 14 13 12 12 11 10 11 15 16 18 21 22 21 23 22 28 28 25 20 16 12
7 8 10 10 9 6 6 4 3 5 4 4 5 4 2 2 2 1 2 1 1 5 7 8 8 9 8 8 8 9 9 9 9 9 9 9 10 10 9 8 8 9 9 8 8 7 8 8 7 7 6 6 6 5 5 11 18 19 21 22 24 25 25 22 15 14 13 12 12 15 15 16 15 16 21 24 21 24 28 26 26 25 19 11 13
7 9 10 10 11 3 5 7 7 1 3 3 5 3 2 5 5 3 2 2 1 3 5 6 7 7 7 8 7 9 8 8 8 8 8 8 9 10 10 8 8 8 8 8 7 6 6 7 7 7 8 6 6 4 4 5 7 12 15 21 24 25 26 26 21 18 20 20 18 16 16 12 8 10 11 12 13 17 20 23 25 23 14 16 14
9 9 9 9 10 5 5 9 10 12 8 5 4 5 5 4 5 3 2 1 1 3 4 4 5 5 6 6 7 7 7 8 7 8 8 8 9 9 9 8 8 9 8 8 7 6 6 6 7 8 7 6 4 4 2 5 5 3 1 1 4 9 10 11 9 9 12 10 12 12 13 13 10 14 17 18 19 19 17 16 15 14 17 19 17
8 7 7 9 9 6 6 5 7 8 9 7 8 7 5 3 1 4 2 0 2 4 5 4 6 4 5 6 6 8 9 8 7 8 8 9 9 9 8 8 8 8 8 7 7 7 6 5 6 6 6 7 8 3 8 5 6 3 2 3 3 2 4 5 8 9 10 12 13 11 10 6 5 7 7 5 6 10 13 13 14 14 17 19 21
5 5 5 6 9 9 8 7 6 6 6 5 7 9 9 4 3 1 3 1 2 4 4 6 5 6 6 6 7 7 9 8 7 9 10 8 6 3 1 7 9 6 2 5 8 9 7 5 2 4 4 6 8 6 3 5 3 5 5 3 1 3 5 7 11 13 10 9 9 11 12 10 8 11 11 9 8 10 8 12 15 17 16 16 17
3 3 3 5 5 6 6 7 6 6 6 6 6 6 7 9 8 7 2 3 3 4 4 5 5 5 8 8 6 9 8 8 10 10 10 9 13 17 12 8 5 8 15 18 13 6 5 6 9 7 6 6 4 3 4 3 4 5 8 6 4 5 6 5 8 9 7 8 9 11 12 12 13 13 14 15 13 10 9 9 13 16 15 14 15
3 2 2 3 4 5 6 6 3 2 5 5 5 5 5 5 6 6 5 3 3 4 6 6 6 6 7 3 4 7 8 6 8 11 10 9 8 13 17 16 11 10 15 16 15 14 15 12 11 8 8 16 14 11 9 8 7 6 5 3 3 6 8 7 6 4 2 7 10 11 12 12 14 13 15 16 16 16 16 13 10 12 14 16 16
Wind_Direction
182 189 200 188 182 187 188 182 177 183 164 174 169 175 175 165 171 165 165 166 162 173 171 183 178 178 185 185 184 182 192 201 205 198 190 211 163 151 154 170 164 179 179 181 189 192 208 205 181 167 187 179 175 206 195 155 90 333 39 260 148 177 184 257 228 217 90 82 25 174 239 321 225 357 281 217 128 109 143 179 149 152 149 152 151
179 185 188 192 191 184 190 181 183 184 169 174 175 177 179 173 173 168 165 166 167 178 175 184 179 181 179 185 181 180 184 195 196 208 203 189 151 157 156 168 176 174 182 186 185 189 198 219 160 179 202 185 182 201 153 162 175 220 220 58 353 140 225 203 184 175 82 147 179 192 205 226 24 243 178 224 141 139 135 139 199 177 136 133 152
177 184 184 191 195 187 189 184 189 187 175 178 174 175 180 176 174 176 167 172 169 177 177 183 175 176 182 183 188 179 181 192 195 194 210 199 164 167 163 167 172 176 183 189 190 195 190 201 174 174 210 193 184 193 189 175 153 208 118 161 118 247 220 242 112 265 229 166 151 84 176 116 334 341 307 269 169 127 151 170 152 77 76 102 138
180 179 185 193 199 187 185 187 187 185 180 178 179 177 179 180 172 180 169 174 168 171 174 180 173 172 180 181 197 197 169 180 197 185 189 209 183 181 165 165 178 181 187 190 197 195 193 187 181 177 204 208 180 169 219 208 139 174 177 190 221 199 190 168 184 201 188 108 100 187 181 136 85 230 249 277 120 130 159 135 122 156 121 116 293
176 182 185 189 195 197 181 183 189 187 185 179 181 180 184 178 172 179 171 174 166 167 171 175 172 173 180 184 188 208 165 172 186 203 188 193 196 181 176 163 177 194 189 193 196 195 191 173 191 198 192 210 186 179 199 190 174 179 164 155 237 245 215 168 177 183 122 92 97 82 326 120 195 174 201 293 118 157 161 137 151 130 124 89 79
176 182 183 186 196 193 180 177 190 190 187 182 182 181 181 177 171 176 172 173 169 169 168 171 179 177 174 182 181 192 197 176 185 193 192 185 202 190 176 178 185 195 191 194 200 194 188 181 191 202 184 192 190 193 189 203 175 193 171 185 226 233 331 185 184 57 117 84 132 161 159 157 114 184 171 241 353 330 112 122 158 139 142 140 156
177 183 187 185 190 196 179 175 189 196 189 182 181 181 179 179 173 176 175 172 171 169 170 170 178 182 181 186 187 187 194 189 175 192 198 183 196 199 164 175 188 194 196 193 197 196 188 188 196 184 185 177 189 209 192 185 186 203 147 216 222 221 145 279 154 141 80 14 270 289 172 232 226 115 115 61 355 332 114 167 171 145 155 145 149
178 183 187 191 188 194 183 184 188 196 188 183 182 180 178 178 173 176 176 174 173 169 174 174 177 180 180 186 191 189 197 191 179 186 196 185 184 209 162 179 184 194 204 190 192 197 186 186 194 187 192 188 179 195 219 218 180 183 159 200 185 154 209 222 353 111 136 184 243 189 265 65 36 343 123 147 155 106 306 325 158 147 163 164 182
180 183 189 189 188 187 188 182 185 193 195 187 183 178 176 176 174 176 177 176 176 171 174 177 177 179 180 185 188 192 191 196 182 181 194 201 184 194 177 174 181 190 201 198 186 193 190 185 190 197 199 197 161 186 218 221 193 168 174 172 144 205 183 249 92 139 161 167 172 234 307 180 163 216 128 83 103 131 231 195 223 160 166 166 218
181 187 187 184 176 177 182 185 184 196 196 193 186 179 176 174 175 177 177 178 177 173 174 176 178 177 182 186 189 186 189 193 190 181 192 194 199 183 199 178 177 183 193 209 184 189 192 188 187 201 203 201 191 183 198 194 222 183 167 167 160 185 145 183 194 121 43 138 183 172 192 41 128 336 136 137 157 71 225 193 207 154 197 181 130
180 186 188 186 185 179 178 181 175 190 204 195 190 183 178 176 176 178 179 178 177 176 175 177 180 181 183 186 189 188 190 192 187 186 187 188 197 191 191 193 174 179 190 202 194 185 197 190 198 199 200 203 187 198 188 190 194 192 178 169 170 188 146 175 191 206 105 263 163 160 185 194 229 197 221 173 166 164 196 256 225 170 181 177 178
179 180 186 185 181 185 192 182 176 186 201 195 197 186 180 178 176 177 179 178 178 177 177 179 183 183 185 186 188 191 190 192 192 190 185 192 191 197 188 195 184 174 184 192 201 194 191 195 198 198 194 197 189 196 202 196 196 174 177 162 173 190 150 164 188 177 216 169 199 161 193 214 224 210 231 200 175 173 181 226 235 280 155 144 125
178 175 179 182 182 187 188 176 177 186 201 194 192 188 183 178 177 177 180 178 178 178 179 180 183 185 186 186 189 189 191 195 195 194 184 190 191 195 194 191 189 184 181 191 194 197 186 192 195 201 191 193 189 188 203 199 190 177 167 163 173 189 171 159 180 178 202 185 219 166 190 224 201 226 253 211 146 99 86 38 301 269 161 139 147
177 179 178 181 185 189 187 181 183 190 197 192 190 188 182 182 180 179 179 179 177 179 180 181 184 186 184 187 188 187 193 193 196 196 191 186 188 197 198 192 191 194 189 192 190 197 192 188 192 199 198 187 188 190 191 200 185 196 161 172 178 182 187 162 173 197 183 213 235 166 180 223 236 182 243 275 163 161 174 213 226 323 309 160 178
174 175 181 176 185 189 194 197 192 190 195 193 190 189 181 180 178 180 179 180 178 180 181 182 184 185 185 187 186 188 191 194 195 195 196 188 190 195 197 197 193 194 201 191 190 190 194 186 188 195 199 190 186 191 192 189 188 191 175 167 180 171 189 166 176 190 187 207 215 235 229 201 232 179 204 214 259 164 187 193 123 106 306 110 180
166 170 184 177 180 185 192 200 195 187 193 194 192 187 182 182 180 180 179 179 180 180 182 183 184 184 184 186 189 188 189 191 194 194 198 197 191 193 195 199 195 191 194 194 193 189 188 187 182 192 196 194 185 189 191 188 185 184 191 171 189 175 179 174 179 191 192 193 214 223 234 252 210 218 185 187 241 208 173 189 175 191 183 253 191
170 176 183 181 180 186 192 193 196 196 195 195 192 189 184 180 180 181 181 180 181 181 181 183 182 183 187 187 187 187 187 191 194 195 199 197 195 194 196 200 200 194 188 192 193 195 188 184 184 191 194 195 190 188 191 191 182 182 187 187 190 191 172 182 184 182 199 197 199 212 227 242 280 257 223 186 191 237 167 182 170 178 183 184 199
165 163 173 177 174 181 189 196 197 198 195 195 191 189 182 180 180 178 179 180 183 182 184 183 182 184 184 187 188 189 190 194 195 196 197 195 198 199 199 198 202 202 194 192 191 190 195 186 182 186 189 193 193 190 192 194 182 186 188 191 188 202 174 179 186 184 192 208 194 202 206 236 235 272 216 256 163 177 101 136 150 163 171 187 199
169 166 176 182 183 185 192 195 197 195 193 194 186 184 183 183 184 184 181 180 181 183 185 184 183 183 185 187 188 190 192 193 195 194 194 198 200 199 203 202 198 200 201 196 184 189 189 193 187 184 184 189 190 189 188 195 189 187 190 186 188 197 190 180 180 186 192 199 213 203 195 207 208 241 241 225 192 167 167 197 192 177 196 184 192
175 162 170 179 182 187 190 193 194 192 190 192 190 190 191 187 184 187 187 184 183 183 182 183 185 184 184 186 190 191 191 191 191 190 192 198 201 200 201 203 199 196 199 199 191 188 185 191 192 191 190 189 189 193 187 190 194 193 193 192 190 192 200 187 184 185 198 195 210 215 200 192 196 205 234 214 201 169 167 185 202 196 199 196 195
187 171 171 178 183 186 187 193 196 193 189 190 192 192 192 189 189 188 187 187 186 186 184 184 185 186 183 185 188 188 190 191 192 192 194 198 200 201 198 202 195 198 195 197 198 194 186 188 194 196 198 191 189 193 190 187 193 193 201 200 192 189 198 197 188 187 194 199 200 215 213 195 186 194 205 219 206 178 175 191 203 198 201 196 193
186 180 174 175 176 176 172 185 205 199 190 193 194 192 191 192 192 190 190 190 189 188 188 184 186 186 186 186 189 188 189 191 193 194 197 197 198 199 198 193 199 197 195 197 197 197 192 186 191 192 195 192 188 189 190 188 190 193 199 203 202 190 195 201 196 195 191 199 195 203 215 207 190 196 199 206 211 200 184 193 202 207 203 201 193
187 186 175 168 162 164 159 174 208 205 195 192 194 194 194 194 192 192 192 192 191 191 189 186 188 188 188 187 188 189 188 190 194 195 199 200 199 198 196 197 199 200 196 199 195 197 193 190 191 190 192 196 189 190 192 190 190 194 197 202 205 197 193 199 200 201 196 193 197 197 206 210 198 199 203 206 205 210 199 196 201 202 206 205 196
192 189 182 159 159 159 170 181 201 204 191 191 196 196 195 194 195 194 195 193 192 191 189 186 188 191 189 187 189 188 191 192 194 194 197 199 201 200 196 199 200 204 199 197 195 194 192 193 193 191 191 195 193 191 193 194 190 193 197 201 202 202 198 200 203 201 199 196 198 198 201 202 208 203 203 206 207 208 208 192 199 198 201 204 200
185 193 160 145 155 165 176 186 192 189 191 189 194 197 197 197 197 198 197 194 193 191 190 187 187 191 192 191 191 190 191 192 194 195 198 199 200 199 197 198 201 204 203 193 196 191 191 193 195 195 193 195 196 194 194 197 196 195 197 201 203 204 204 199 201 202 201 199 199 202 198 196 201 207 201 206 209 213 211 203 197 199 196 201 205
178 190 148 156 158 165 173 184 183 180 190 186 190 198 201 199 200 199 196 194 195 194 192 187 188 190 191 192 191 192 193 194 195 198 199 200 200 200 198 195 200 202 202 196 192 194 191 193 196 197 197 195 196 196 195 198 200 199 198 202 204 206 208 205 201 203 202 201 203 203 200 196 199 203 204 203 205 213 213 212 205 198 197 193 202
165 178 152 155 162 164 175 182 180 184 190 191 191 198 202 198 198 199 198 196 194 194 191 190 189 192 190 192 192 192 192 195 194 198 199 199 200 200 201 198 198 202 203 202 194 193 193 192 194 197 199 197 196 197 196 197 201 202 200 200 204 205 207 208 205 204 205 204 205 204 202 200 200 203 204 201 201 205 211 214 208 202 195 195 197
95 97 90 141 156 162 169 173 177 181 186 194 196 198 201 196 196 198 200 198 196 195 191 189 189 193 192 193 192 190 193 194 194 192 196 198 201 200 201 198 194 200 204 204 201 194 191 192 193 197 200 198 196 196 197 198 200 202 200 200 203 205 207 208 207 206 208 209 207 207 207 203 202 202 202 202 197 201 204 211 206 204 200 198 201
119 69 68 115 153 163 167 167 174 180 187 195 198 198 196 195 197 195 201 202 193 190 192 191 189 193 194 191 190 190 193 193 193 192 195 197 199 200 199 198 193 197 204 207 208 199 191 194 194 195 199 199 200 200 198 197 197 201 204 202 201 205 206 206 206 207 206 209 209 210 210 208 203 202 201 201 200 196 197 203 202 201 203 202 202
134 136 139 138 135 127 154 164 178 188 189 196 199 196 192 193 195 196 199 202 191 188 189 195 194 192 189 187 189 191 191 192 193 194 195 196 198 198 198 198 197 196 196 202 207 206 194 193 195 195 198 201 204 204 199 193 193 198 202 205 203 205 207 207 205 206 208 209 211 212 213 209 203 200 199 201 201 199 200 200 197 195 199 201 202
145 151 162 155 158 156 165 175 190 207 203 200 198 198 197 200 198 200 197 200 194 185 189 194 195 186 184 186 188 191 190 193 195 195 194 196 199 198 199 198 199 196 195 195 200 205 207 195 195 197 199 202 205 206 195 192 192 195 197 203 203 203 205 209 209 207 208 209 213 214 217 206 205 200 200 198 201 203 202 203 199 198 197 197 198
155 162 164 173 170 178 178 188 193 199 207 209 199 195 199 206 199 200 198 200 205 191 189 191 191 182 183 186 188 188 190 194 195 196 195 195 197 200 200 198 197 198 196 192 196 203 208 205 196 200 204 206 208 203 191 192 193 194 196 200 204 206 205 208 212 211 209 210 211 214 216 215 205 202 196 199 201 203 203 204 202 200 202 203 201
162 177 161 160 175 184 190 191 193 195 199 205 203 200 202 207 202 195 196 200 205 201 186 188 188 185 183 183 184 188 192 193 196 197 196 193 196 201 202 199 199 198 193 195 198 200 205 211 206 198 206 208 212 200 190 191 194 195 196 197 205 207 208 211 211 212 212 209 211 213 216 215 213 199 200 200 199 204 205 203 204 205 206 204 206
14 61 161 185 187 172 181 181 187 187 192 197 203 204 201 200 210 193 200 203 199 206 187 186 187 185 181 181 184 188 192 195 194 195 195 195 196 201 203 202 199 193 197 201 199 201 203 207 213 208 204 209 214 198 190 192 194 196 197 198 208 205 210 212 210 210 213 214 211 212 214 215 214 198 202 202 202 203 202 203 204 208 210 211 209
301 354 315 9 95 107 126 168 216 185 185 187 190 202 194 200 208 207 200 199 198 203 199 183 185 183 180 182 184 186 191 192 192 194 196 198 199 200 201 202 200 199 199 201 201 202 203 206 211 215 212 210 215 197 187 193 195 196 198 199 209 210 212 213 212 210 212 215 215 214 214 215 212 207 200 203 200 203 203 204 207 210 213 211 210
224 212 177 3 116 91 218 222 214 224 190 176 186 191 196 203 204 211 203 200 198 199 204 182 184 184 183 182 182 186 188 190 192 193 197 201 201 199 199 199 204 205 206 205 207 210 207 208 210 214 218 219 218 198 189 191 195 196 196 198 209 214 215 215 213 212 212 214 215 216 216 216 216 216 206 200 199 196 202 206 209 213 215 217 218
352 280 240 153 100 133 57 43 1 326 260 196 180 186 198 198 202 206 204 202 199 199 204 192 186 185 183 181 182 184 187 190 192 193 197 200 199 198 200 197 206 207 204 204 208 209 210 210 211 213 218 224 224 203 190 193 194 194 191 196 207 213 219 220 218 213 214 214 214 214 214 216 216 219 207 194 199 189 200 206 210 212 215 217 223
15 357 63 63 45 54 67 0 2 317 297 305 298 199 181 193 195 196 195 204 205 205 203 195 186 185 182 180 179 183 185 188 192 196 197 199 196 194 199 197 205 208 211 212 209 210 212 214 214 215 214 220 225 207 190 195 195 191 189 191 206 211 220 223 227 223 219 219 217 212 212 214 215 216 203 190 196 193 202 206 210 213 215 219 223
19 38 15 25 37 30 7 343 327 290 282 263 255 282 239 186 189 198 199 200 208 208 199 197 188 181 181 178 179 184 187 190 194 195 193 189 190 192 195 193 205 209 215 213 210 212 215 215 218 220 217 219 226 217 192 194 194 192 193 200 202 209 218 224 224 227 227 226 224 217 213 214 216 211 197 191 193 193 206 206 208 211 217 219 218
356 26 14 2 337 321 327 272 266 267 252 253 250 235 252 236 193 196 198 198 206 205 193 190 181 177 179 181 183 184 189 193 194 192 193 193 187 191 195 197 204 209 212 216 216 214 216 219 219 221 223 216 222 226 195 195 190 193 193 198 206 207 219 223 223 226 229 232 232 230 218 218 217 211 198 193 193 195 203 208 206 211 217 222 214
354 0 346 349 344 337 358 334 0 355 325 290 253 225 223 243 221 198 206 208 199 188 180 181 179 175 181 184 185 187 190 190 191 193 195 193 193 196 196 197 203 206 209 212 220 221 220 220 220 218 226 223 222 224 203 186 190 190 194 199 209 214 221 225 225 229 231 235 235 233 241 208 216 218 205 196 196 199 204 207 208 216 217 216 198
1 328 303 359 4 10 330 303 304 323 275 256 287 305 287 244 237 213 208 208 166 173 172 173 177 176 177 184 187 186 187 190 187 184 193 196 194 196 197 197 204 205 207 208 211 221 225 224 221 220 221 221 221 214 213 186 186 189 191 201 210 220 220 225 228 232 232 237 236 233 236 220 207 216 215 204 202 202 207 211 216 217 216 197 196
348 340 17 9 0 351 335 323 335 10 355 343 316 282 276 291 279 285 239 189 152 167 165 167 172 172 174 180 187 184 184 190 190 188 192 196 194 198 199 196 196 202 204 205 207 210 220 231 232 224 220 218 219 211 208 179 186 186 192 200 211 217 213 213 224 229 230 236 233 235 235 226 208 211 212 209 207 208 208 216 221 218 213 197 194
332 338 4 356 336 336 343 340 356 342 332 321 303 307 286 283 296 315 310 351 119 156 154 161 167 172 172 178 181 185 185 190 188 189 193 193 196 198 199 197 195 200 202 205 205 203 212 222 229 236 239 232 217 215 194 177 179 190 195 199 208 218 215 213 216 228 229 232 233 231 232 228 214 209 210 210 209 209 213 217 220 219 212 200 199
325 18 7 339 324 342 331 325 314 317 317 304 289 279 281 245 314 326 330 335 95 138 148 156 160 169 172 176 176 184 185 186 186 187 188 191 196 195 202 200 196 200 204 207 203 202 209 215 223 227 236 240 245 239 239 177 181 187 195 202 208 211 217 216 216 222 229 230 229 227 225 228 222 213 214 214 214 216 216 216 216 218 214 203 210
350 20 2 331 311 344 2 31 19 263 211 338 8 11 104 62 10 349 229 316 293 118 140 149 152 161 172 186 190 184 173 176 185 185 185 191 196 196 201 200 201 200 201 206 205 205 208 211 214 229 232 236 230 219 241 157 181 190 200 206 206 209 214 215 217 221 220 224 226 228 231 232 213 211 216 217 233 227 224 222 219 214 206 213 214
355 359 344 330 327 326 37 22 15 2 14 47 48 50 48 27 14 5 40 226 144 105 110 123 140 158 169 189 194 185 159 172 186 198 200 194 202 199 200 199 199 205 202 199 209 212 214 213 213 219 223 220 211 220 272 70 86 123 157 223 280 283 283 297 298 288 283 267 252 242 238 239 237 216 211 214 216 220 221 221 229 224 218 216 216
350 345 335 336 336 333 29 42 18 4 10 19 29 21 30 10 163 258 111 345 117 140 154 159 164 166 170 191 191 172 170 183 183 202 216 204 200 207 203 191 197 205 204 197 202 209 216 227 231 219 211 202 210 93 49 35 26 28 97 144 157 192 230 208 235 246 244 255 255 264 271 299 261 253 241 275 252 230 225 217 219 217 221 222 220
325 345 345 26 10 19 27 18 23 6 10 22 20 15 2 1 345 0 53 264 139 184 156 179 180 184 183 183 192 172 179 182 148 81 58 33 355 315 85 71 29 7 323 224 196 193 204 224 253 21 26 51 52 62 23 12 1 13 10 353 168 193 200 210 221 230 250 262 264 262 265 261 255 248 254 239 227 227 225 224 222 223 224 222 222
318 299 320 14 41 46 40 36 30 8 12 14 15 15 19 12 6 345 222 179 163 180 181 188 183 193 181 171 193 184 177 184 149 114 98 70 53 49 39 76 76 49 62 58 68 80 64 85 85 47 38 74 81 77 111 107 71 42 31 32 347 326 330 317 339 322 248 241 240 245 244 246 247 248 247 246 238 226 221 218 227 225 226 229 228
294 342 19 21 25 44 50 58 40 9 35 28 23 21 14 24 2 359 358 101 67 42 60 68 60 45 15 123 194 179 165 202 158 135 122 114 94 55 47 50 72 80 82 82 84 82 66 60 101 120 88 95 113 131 136 126 110 101 104 79 1 338 322 349 13 346 255 218 234 233 238 236 241 243 244 245 242 240 239 234 234 228 225 226 229